When you browse on this site, cookies collect data to enhance your experience and personalize the content and advertising you see.
Visit our Privacy Policy to learn more. By continuing to use the site, you agree to this use of cookies and data.
  • In Deutschland
  • Länderverzeichnis
  • Für 7 Tage
  • Wassertemperatur
  • Wetterkarte
  • Widgets
  • user-avatar
    Anmelden

    Stündliche Wetter Dreieich

    Heute, 19 August, Montag

    Zeit Temperatur Niederschläge Wind Luftdruck Luftfeuchtigkeit
    00:00 +20°C° 0 mm 2 m/S 744 mmHg 81%
    01:00 +19°C° 0 mm 2 m/S 745 mmHg 84%
    02:00 +19°C° 0.1 mm 2 m/S 745 mmHg 82%
    03:00 +20°C° 0.1 mm 1 m/S 745 mmHg 81%
    04:00 +19°C° 0.1 mm 1 m/S 745 mmHg 80%
    05:00 +19°C° 0.1 mm 1 m/S 745 mmHg 78%
    06:00 +20°C° 0.1 mm 1 m/S 746 mmHg 76%
    07:00 +20°C° 0 mm 1 m/S 746 mmHg 71%
    08:00 +21°C° 0 mm 1 m/S 746 mmHg 64%
    09:00 +21°C° 0 mm 2 m/S 747 mmHg 57%
    10:00 +22°C° 0 mm 3 m/S 747 mmHg 50%
    11:00 +24°C° 0 mm 3 m/S 747 mmHg 46%
    12:00 +25°C° 0 mm 3 m/S 747 mmHg 43%
    13:00 +25°C° 0 mm 3 m/S 748 mmHg 39%
    14:00 +25°C° 0 mm 3 m/S 748 mmHg 39%
    15:00 +25°C° 0 mm 3 m/S 748 mmHg 39%
    16:00 +25°C° 0 mm 3 m/S 747 mmHg 39%
    17:00 +24°C° 0 mm 2 m/S 748 mmHg 43%
    18:00 +24°C° 0 mm 2 m/S 748 mmHg 47%
    19:00 +23°C° 0 mm 1 m/S 748 mmHg 50%
    20:00 +22°C° 0 mm 1 m/S 748 mmHg 53%
    21:00 +20°C° 0 mm 1 m/S 749 mmHg 56%
    22:00 +19°C° 0 mm 1 m/S 749 mmHg 58%
    23:00 +19°C° 0 mm 1 m/S 749 mmHg 60%

    Morgen, 20 August, Dienstag

    Zeit Temperatur Niederschläge Wind Luftdruck Luftfeuchtigkeit
    00:00 +17°C° 0 mm 0 m/S 749 mmHg 61%
    01:00 +16°C° 0 mm 0 m/S 749 mmHg 63%
    02:00 +16°C° 0 mm 0 m/S 749 mmHg 64%
    03:00 +16°C° 0 mm 0 m/S 749 mmHg 65%
    04:00 +16°C° 0 mm 0 m/S 750 mmHg 66%
    05:00 +18°C° 0 mm 1 m/S 750 mmHg 65%
    06:00 +18°C° 0 mm 1 m/S 750 mmHg 65%
    07:00 +19°C° 0 mm 1 m/S 750 mmHg 64%
    08:00 +19°C° 0 mm 1 m/S 750 mmHg 61%
    09:00 +20°C° 0 mm 1 m/S 750 mmHg 58%
    10:00 +21°C° 0 mm 1 m/S 751 mmHg 55%
    11:00 +21°C° 0 mm 1 m/S 751 mmHg 54%
    12:00 +22°C° 0 mm 1 m/S 751 mmHg 53%
    13:00 +22°C° 0 mm 1 m/S 751 mmHg 52%
    14:00 +22°C° 0.1 mm 1 m/S 751 mmHg 53%
    15:00 +22°C° 0.1 mm 1 m/S 752 mmHg 55%
    16:00 +20°C° 0.1 mm 2 m/S 752 mmHg 56%
    17:00 +20°C° 0.1 mm 2 m/S 752 mmHg 59%
    18:00 +19°C° 0.1 mm 2 m/S 752 mmHg 63%
    19:00 +18°C° 0.1 mm 2 m/S 752 mmHg 66%
    20:00 +18°C° 0 mm 2 m/S 753 mmHg 68%
    21:00 +17°C° 0 mm 2 m/S 753 mmHg 69%
    22:00 +17°C° 0 mm 2 m/S 753 mmHg 70%
    23:00 +16°C° 0 mm 1 m/S 753 mmHg 71%

    übermorgen, 21 August, Mittwoch

    Zeit Temperatur Niederschläge Wind Luftdruck Luftfeuchtigkeit
    00:00 +16°C° 0 mm 1 m/S 754 mmHg 72%
    01:00 +16°C° 0 mm 1 m/S 754 mmHg 73%
    02:00 +15°C° 0 mm 1 m/S 754 mmHg 74%
    03:00 +15°C° 0 mm 1 m/S 754 mmHg 76%
    04:00 +15°C° 0 mm 1 m/S 754 mmHg 77%
    05:00 +14°C° 0 mm 0 m/S 754 mmHg 76%
    06:00 +14°C° 0 mm 0 m/S 755 mmHg 75%
    07:00 +15°C° 0 mm 0 m/S 755 mmHg 73%
    08:00 +17°C° 0 mm 0 m/S 755 mmHg 66%
    09:00 +19°C° 0 mm 0 m/S 755 mmHg 58%
    10:00 +21°C° 0 mm 0 m/S 755 mmHg 51%
    11:00 +22°C° 0 mm 0 m/S 755 mmHg 46%
    12:00 +23°C° 0 mm 0 m/S 754 mmHg 42%
    13:00 +26°C° 0 mm 1 m/S 754 mmHg 37%
    14:00 +26°C° 0 mm 1 m/S 754 mmHg 37%
    15:00 +26°C° 0 mm 1 m/S 753 mmHg 38%
    16:00 +25°C° 0 mm 2 m/S 753 mmHg 38%
    17:00 +24°C° 0 mm 2 m/S 753 mmHg 43%
    18:00 +23°C° 0 mm 2 m/S 753 mmHg 48%
    19:00 +21°C° 0 mm 2 m/S 753 mmHg 53%
    20:00 +20°C° 0 mm 2 m/S 753 mmHg 55%
    21:00 +20°C° 0 mm 1 m/S 753 mmHg 56%
    22:00 +19°C° 0 mm 1 m/S 753 mmHg 58%
    23:00 +19°C° 0 mm 1 m/S 753 mmHg 61%

    22 August, Donnerstag

    Zeit Temperatur Niederschläge Wind Luftdruck Luftfeuchtigkeit
    00:00 +18°C° 0 mm 1 m/S 753 mmHg 64%
    01:00 +16°C° 0 mm 1 m/S 753 mmHg 66%
    02:00 +16°C° 0 mm 1 m/S 753 mmHg 69%
    03:00 +16°C° 0 mm 1 m/S 753 mmHg 72%
    04:00 +15°C° 0 mm 1 m/S 753 mmHg 75%
    05:00 +16°C° 0 mm 1 m/S 753 mmHg 74%
    06:00 +16°C° 0 mm 1 m/S 753 mmHg 73%
    07:00 +16°C° 0 mm 1 m/S 753 mmHg 72%
    08:00 +19°C° 0 mm 1 m/S 753 mmHg 65%
    09:00 +21°C° 0 mm 1 m/S 753 mmHg 59%
    10:00 +23°C° 0 mm 2 m/S 754 mmHg 52%
    11:00 +24°C° 0 mm 2 m/S 753 mmHg 47%
    12:00 +26°C° 0 mm 2 m/S 753 mmHg 43%
    13:00 +27°C° 0 mm 2 m/S 753 mmHg 38%
    14:00 +27°C° 0 mm 2 m/S 752 mmHg 37%
    15:00 +27°C° 0 mm 2 m/S 752 mmHg 36%
    16:00 +27°C° 0 mm 2 m/S 752 mmHg 35%
    17:00 +26°C° 0 mm 2 m/S 752 mmHg 40%
    18:00 +25°C° 0 mm 2 m/S 752 mmHg 45%
    19:00 +23°C° 0 mm 2 m/S 752 mmHg 50%
    20:00 +22°C° 0 mm 1 m/S 752 mmHg 52%
    21:00 +21°C° 0 mm 1 m/S 752 mmHg 54%
    22:00 +20°C° 0 mm 1 m/S 753 mmHg 56%
    23:00 +20°C° 0 mm 1 m/S 753 mmHg 57%

    23 August, Freitag

    Zeit Temperatur Niederschläge Wind Luftdruck Luftfeuchtigkeit
    00:00 +19°C° 0 mm 1 m/S 752 mmHg 59%
    01:00 +19°C° 0 mm 1 m/S 752 mmHg 60%
    02:00 +18°C° 0 mm 1 m/S 752 mmHg 63%
    03:00 +18°C° 0 mm 1 m/S 752 mmHg 65%
    04:00 +16°C° 0 mm 1 m/S 752 mmHg 68%
    05:00 +18°C° 0 mm 1 m/S 752 mmHg 68%
    06:00 +18°C° 0 mm 1 m/S 752 mmHg 68%
    07:00 +18°C° 0 mm 1 m/S 752 mmHg 67%
    08:00 +19°C° 0 mm 2 m/S 752 mmHg 61%
    09:00 +21°C° 0 mm 2 m/S 752 mmHg 55%
    10:00 +24°C° 0 mm 2 m/S 752 mmHg 49%
    11:00 +25°C° 0 mm 2 m/S 752 mmHg 44%
    12:00 +27°C° 0 mm 2 m/S 751 mmHg 40%
    13:00 +28°C° 0 mm 3 m/S 751 mmHg 36%
    14:00 +28°C° 0 mm 3 m/S 751 mmHg 36%
    15:00 +28°C° 0 mm 2 m/S 750 mmHg 35%
    16:00 +28°C° 0 mm 2 m/S 750 mmHg 35%
    17:00 +27°C° 0 mm 2 m/S 750 mmHg 40%
    18:00 +26°C° 0 mm 2 m/S 750 mmHg 44%
    19:00 +24°C° 0 mm 1 m/S 750 mmHg 49%
    20:00 +23°C° 0 mm 1 m/S 750 mmHg 52%
    21:00 +22°C° 0 mm 1 m/S 750 mmHg 54%
    22:00 +21°C° 0 mm 1 m/S 750 mmHg 57%
    23:00 +20°C° 0 mm 1 m/S 749 mmHg 60%

    24 August, Samstag

    Zeit Temperatur Niederschläge Wind Luftdruck Luftfeuchtigkeit
    00:00 +20°C° 0 mm 1 m/S 749 mmHg 63%
    01:00 +19°C° 0 mm 1 m/S 749 mmHg 65%
    02:00 +19°C° 0 mm 1 m/S 749 mmHg 68%
    03:00 +18°C° 0 mm 1 m/S 748 mmHg 71%
    04:00 +18°C° 0 mm 1 m/S 748 mmHg 74%
    05:00 +18°C° 0 mm 1 m/S 748 mmHg 72%
    06:00 +19°C° 0 mm 1 m/S 748 mmHg 71%
    07:00 +19°C° 0 mm 1 m/S 748 mmHg 70%
    08:00 +21°C° 0 mm 1 m/S 748 mmHg 64%
    09:00 +23°C° 0 mm 1 m/S 748 mmHg 59%
    10:00 +25°C° 0 mm 1 m/S 748 mmHg 53%
    11:00 +26°C° 0 mm 1 m/S 748 mmHg 49%
    12:00 +28°C° 0 mm 1 m/S 747 mmHg 45%
    13:00 +30°C° 0 mm 1 m/S 747 mmHg 41%
    14:00 +30°C° 0 mm 1 m/S 747 mmHg 40%
    15:00 +30°C° 0 mm 1 m/S 746 mmHg 39%
    16:00 +28°C° 0 mm 0 m/S 746 mmHg 38%
    17:00 +29°C° 0 mm 1 m/S 746 mmHg 43%
    18:00 +27°C° 0 mm 1 m/S 745 mmHg 47%
    19:00 +26°C° 0 mm 1 m/S 745 mmHg 52%
    20:00 +25°C° 0 mm 1 m/S 745 mmHg 54%
    21:00 +22°C° 0 mm 0 m/S 746 mmHg 57%
    22:00 +21°C° 0 mm 0 m/S 746 mmHg 59%
    23:00 +20°C° 0 mm 0 m/S 746 mmHg 61%
    Mehr zeigen